Weather History for Americus, GA

Change the Weather History Date:

Friday, November 8, 2013

  Actual Average (KABY) Record (KABY)
Temperature  
Mean Temperature 50 °F 61 °F  
Max Temperature 62 °F 74 °F 88 °F (1986)
Min Temperature 37 °F 48 °F 24 °F (1967)
Degree Days  
Heating Degree Days 16 5  
Month to date heating degree days 38  
Since 1 July heating degree days 88  
Cooling Degree Days 0 1  
Month to date cooling degree days 14  
Year to date cooling degree days 2517  
Moisture  
Dew Point 34 °F    
Average Humidity 64    
Maximum Humidity 87    
Minimum Humidity 32    
Precipitation  
Precipitation 0.00 in - 0.01 in (2002)
Sea Level Pressure  
Sea Level Pressure 30.26 in    
Wind  
Wind Speed 7 mph (NE)    
Max Wind Speed 15 mph    
Max Gust Speed 21 mph    
Visibility 10 miles    
Events      
T = Trace of Precipitation, MM = Missing Value Source: NWS Daily Summary

Daily Weather History Graph

Daily Weather History Graph

Search for Another Location

Airport:

Trip Planner

Search our weather history database for the weather conditions in past years. The results will help you decide how hot, cold, wet, or windy it might be!

Date:

Astronomy

Nov. 08, 2013 Rise Set
Actual Time 6:59 AM EST 5:40 PM EST
Civil Twilight 6:34 AM EST 6:06 PM EST
Nautical Twilight 6:04 AM EST 6:35 PM EST
Astronomical Twilight 5:36 AM EST 7:04 PM EST
Moon 11:54 AM EST (11/8) 10:59 PM EST (11/8)
Length of Visible Light 11h 32m
Length of Day
10h 41m
Waxing Crescent, 33% of the Moon is Illuminated
Nov 8
Waxing Crescent
Nov 10
First Quarter
Nov 17
Full
Nov 25
Last Quarter
Dec 2
New

Hourly Weather History & Observations

Time (EST) Temp. Windchill Dew Point Humidity Pressure Visibility Wind Dir Wind Speed Gust Speed Precip Events Conditions
12:15 AM 50.0 °F - 33.8 °F 54% 30.19 in 10.0 mi North 9.2 mph 20.7 mph N/A   Clear
12:35 AM 50.0 °F - 33.8 °F 54% 30.19 in 10.0 mi North 9.2 mph 16.1 mph N/A   Clear
12:55 AM 48.2 °F - 33.8 °F 58% 30.19 in 10.0 mi North 9.2 mph 18.4 mph N/A   Clear
1:15 AM 46.4 °F 42.4 °F 33.8 °F 62% 30.19 in 10.0 mi North 8.1 mph - N/A   Clear
1:35 AM 46.4 °F 42.4 °F 33.8 °F 62% 30.19 in 10.0 mi North 8.1 mph - N/A   Clear
1:55 AM 46.4 °F 42.9 °F 33.8 °F 62% 30.20 in 10.0 mi North 6.9 mph - N/A   Clear
2:15 AM 44.6 °F 42.2 °F 33.8 °F 66% 30.20 in 10.0 mi NNE 4.6 mph - N/A   Clear
2:35 AM 44.6 °F 42.2 °F 33.8 °F 66% 30.20 in 10.0 mi North 4.6 mph - N/A   Clear
2:55 AM 42.8 °F 41.1 °F 33.8 °F 70% 30.21 in 10.0 mi North 3.5 mph - N/A   Clear
3:15 AM 41.0 °F - 33.8 °F 76% 30.21 in 10.0 mi Calm Calm - N/A   Clear
3:35 AM 39.2 °F 37.0 °F 33.8 °F 81% 30.22 in 10.0 mi North 3.5 mph - N/A   Clear
3:55 AM 41.0 °F 39.0 °F 33.8 °F 76% 30.22 in 10.0 mi North 3.5 mph - N/A   Clear
4:15 AM 41.0 °F - 33.8 °F 76% 30.22 in 10.0 mi Calm Calm - N/A   Clear
4:35 AM 39.2 °F - 33.8 °F 81% 30.23 in 10.0 mi Calm Calm - N/A   Clear
4:55 AM 37.4 °F - 33.8 °F 87% 30.23 in 10.0 mi Calm Calm - N/A   Clear
5:15 AM 37.4 °F 33.8 °F 32.0 °F 81% 30.24 in 10.0 mi NNE 4.6 mph - N/A   Clear
5:35 AM 37.4 °F 33.8 °F 33.8 °F 87% 30.24 in 10.0 mi NNE 4.6 mph - N/A   Clear
5:55 AM 39.2 °F 35.9 °F 33.8 °F 81% 30.25 in 10.0 mi North 4.6 mph - N/A   Clear
6:15 AM 39.2 °F 35.9 °F 33.8 °F 81% 30.25 in 10.0 mi North 4.6 mph - N/A   Clear
6:35 AM 37.4 °F 33.8 °F 33.8 °F 87% 30.26 in 10.0 mi North 4.6 mph - N/A   Clear
6:55 AM 37.4 °F 33.8 °F 33.8 °F 87% 30.27 in 10.0 mi North 4.6 mph - N/A   Clear
7:15 AM 37.4 °F 32.8 °F 33.8 °F 87% 30.28 in 10.0 mi NNE 5.8 mph - N/A   Clear
7:35 AM 39.2 °F 33.6 °F 33.8 °F 81% 30.29 in 10.0 mi North 8.1 mph - N/A   Clear
7:55 AM 41.0 °F 36.4 °F 33.8 °F 76% 30.30 in 10.0 mi NNE 6.9 mph - N/A   Clear
8:15 AM 42.8 °F 37.0 °F 33.8 °F 70% 30.30 in 10.0 mi NNE 10.4 mph - N/A   Clear
8:35 AM 44.6 °F 38.8 °F 33.8 °F 66% 30.31 in 10.0 mi NNE 11.5 mph - N/A   Clear
8:55 AM 46.4 °F 40.1 °F 33.8 °F 62% 30.32 in 10.0 mi NE 15.0 mph - N/A   Clear
9:15 AM 48.2 °F - 33.8 °F 58% 30.33 in 10.0 mi NE 15.0 mph - N/A   Clear
9:35 AM 50.0 °F - 33.8 °F 54% 30.33 in 10.0 mi NE 15.0 mph 19.6 mph N/A   Clear
9:55 AM 50.0 °F - 33.8 °F 54% 30.33 in 10.0 mi NE 12.7 mph - N/A   Clear
10:15 AM 51.8 °F - 33.8 °F 50% 30.33 in 10.0 mi ENE 9.2 mph 18.4 mph N/A   Clear
10:35 AM 53.6 °F - 33.8 °F 47% 30.33 in 10.0 mi ENE 13.8 mph 18.4 mph N/A   Clear
10:55 AM 55.4 °F - 33.8 °F 44% 30.33 in 10.0 mi ENE 9.2 mph - N/A   Clear
11:15 AM 55.4 °F - 33.8 °F 44% 30.33 in 10.0 mi ENE 10.4 mph - N/A   Clear
11:35 AM 57.2 °F - 33.8 °F 41% 30.32 in 10.0 mi ENE 8.1 mph - N/A   Clear
11:55 AM 59.0 °F - 32.0 °F 36% 30.31 in 10.0 mi NE 11.5 mph - N/A   Clear
12:15 PM 59.0 °F - 32.0 °F 36% 30.30 in 10.0 mi ENE 10.4 mph 16.1 mph N/A   Clear
12:35 PM 59.0 °F - 32.0 °F 36% 30.29 in 10.0 mi ENE 8.1 mph 18.4 mph N/A   Clear
12:55 PM 60.8 °F - 33.8 °F 36% 30.28 in 10.0 mi East 10.4 mph - N/A   Clear
1:15 PM 60.8 °F - 33.8 °F 36% 30.27 in 10.0 mi ENE 9.2 mph - N/A   Clear
1:35 PM 60.8 °F - 33.8 °F 36% 30.26 in 10.0 mi East 11.5 mph - N/A   Clear
1:55 PM - - - N/A% - - North - - N/A   Unknown
2:15 PM - - - N/A% - - North - - N/A   Unknown
2:35 PM - - - N/A% - - North - - N/A   Unknown
2:55 PM - - - N/A% - - North - - N/A   Unknown
3:15 PM - - - N/A% - - North - - N/A   Unknown
3:35 PM 62.6 °F - 32.0 °F 32% 30.25 in - NE 9.2 mph - N/A   Unknown
3:55 PM 60.8 °F - 32.0 °F 34% 30.24 in 10.0 mi ENE 5.8 mph - N/A   Clear
4:15 PM 62.6 °F - 32.0 °F 32% 30.24 in 10.0 mi East 6.9 mph - N/A   Clear
4:35 PM 60.8 °F - 32.0 °F 34% 30.24 in 10.0 mi ENE 6.9 mph - N/A   Clear
4:55 PM 60.8 °F - 32.0 °F 34% 30.24 in 10.0 mi ENE 4.6 mph - N/A   Clear
5:15 PM 59.0 °F - 33.8 °F 39% 30.25 in 10.0 mi ENE 3.5 mph - N/A   Clear
5:35 PM 53.6 °F - 35.6 °F 51% 30.25 in 10.0 mi Calm Calm - N/A   Clear
5:55 PM 51.8 °F - 37.4 °F 58% 30.25 in 10.0 mi East 3.5 mph - N/A   Clear
6:15 PM 50.0 °F - 37.4 °F 62% 30.25 in 10.0 mi East 4.6 mph - N/A   Clear
6:35 PM 48.2 °F - 37.4 °F 66% 30.25 in 10.0 mi ENE 4.6 mph - N/A   Clear
6:55 PM 46.4 °F - 37.4 °F 71% 30.26 in 10.0 mi Calm Calm - N/A   Clear
7:15 PM 46.4 °F 45.2 °F 37.4 °F 71% 30.26 in 10.0 mi ENE 3.5 mph - N/A   Clear
7:35 PM 44.6 °F 43.1 °F 37.4 °F 76% 30.26 in 10.0 mi East 3.5 mph - N/A   Clear
7:55 PM 42.8 °F 41.1 °F 37.4 °F 81% 30.26 in 7.0 mi East 3.5 mph - N/A   Clear
8:15 PM 44.6 °F 43.1 °F 35.6 °F 71% 30.26 in 10.0 mi ENE 3.5 mph - N/A   Clear
8:35 PM 44.6 °F - 35.6 °F 71% 30.27 in 10.0 mi Calm Calm - N/A   Clear
8:55 PM 42.8 °F 41.1 °F 37.4 °F 81% 30.27 in 10.0 mi East 3.5 mph - N/A   Clear
9:15 PM 42.8 °F 41.1 °F 37.4 °F 81% 30.27 in 10.0 mi East 3.5 mph - N/A   Clear
9:35 PM 42.8 °F 41.1 °F 37.4 °F 81% 30.27 in 10.0 mi East 3.5 mph - N/A   Clear
9:55 PM 41.0 °F 39.0 °F 35.6 °F 81% 30.28 in 10.0 mi East 3.5 mph - N/A   Clear
10:15 PM 41.0 °F 39.0 °F 35.6 °F 81% 30.28 in 10.0 mi NE 3.5 mph - N/A   Clear
10:35 PM 41.0 °F 39.0 °F 35.6 °F 81% 30.29 in 7.0 mi NE 3.5 mph - N/A   Clear
10:55 PM 39.2 °F 35.9 °F 35.6 °F 87% 30.29 in 10.0 mi ENE 4.6 mph - N/A   Clear
11:15 PM 39.2 °F 35.9 °F 35.6 °F 87% 30.29 in 10.0 mi NE 4.6 mph - N/A   Clear
11:35 PM 41.0 °F - 35.6 °F 81% 30.29 in 10.0 mi Calm Calm - N/A   Clear
11:55 PM 39.2 °F 35.9 °F 35.6 °F 87% 30.28 in 10.0 mi East 4.6 mph - N/A   Clear